SP5MRF Weather Reports


Display with metric or nautical units.
time (UTC)temp
F
wind
direction
speed
MPH
gust
MPH
rain 1hr
in
rain 24hr
in
rain mn
in
humidity
%
barometer
mb
20260503200601 62 0 0.0 0.0 0.00 0.00 0.00 38 1009.3
20260503195800 62 0 0.0 0.0 0.00 0.00 0.00 38 1009.4
20260503195000 62 0 0.0 0.0 0.00 0.00 0.00 38 1009.4
20260503194200 63 0 0.0 0.0 0.00 0.00 0.00 37 1009.4
20260503193400 63 0 0.0 0.0 0.00 0.00 0.00 36 1009.5
20260503192600 63 0 0.0 0.0 0.00 0.00 0.00 36 1009.4
20260503191800 64 0 0.0 0.0 0.00 0.00 0.00 35 1009.4
20260503191000 64 0 0.0 0.0 0.00 0.00 0.00 34 1009.4
20260503190200 65 0 0.0 0.0 0.00 0.00 0.00 33 1009.4
20260503185401 66 0 0.0 0.0 0.00 0.00 0.00 33 1009.4
20260503184600 67 0 0.0 0.0 0.00 0.00 0.00 32 1009.5
20260503183800 68 0 0.0 0.0 0.00 0.00 0.00 31 1009.4
20260503183000 68 0 0.0 0.0 0.00 0.00 0.00 31 1009.3
20260503182200 69 0 0.0 0.0 0.00 0.00 0.00 30 1009.4
20260503181400 70 0 0.0 0.0 0.00 0.00 0.00 30 1009.3
20260503180600 72 0 0.0 0.0 0.00 0.00 0.00 29 1009.3
20260503175800 73 0 0.0 0.0 0.00 0.00 0.00 29 1009.2
20260503175001 74 0 0.0 0.0 0.00 0.00 0.00 28 1009.1
20260503174200 75 0 0.0 0.0 0.00 0.00 0.00 28 1009.2
20260503173400 76 0 0.0 0.0 0.00 0.00 0.00 27 1009.1
20260503172600 76 0 0.0 0.0 0.00 0.00 0.00 27 1009.0
20260503171800 77 0 0.0 0.0 0.00 0.00 0.00 27 1009.1
20260503171000 77 0 0.0 0.0 0.00 0.00 0.00 26 1009.0
20260503170200 78 0 0.0 5.0 0.00 0.00 0.00 25 1009.0
20260503151000 80 292 0.0 3.0 0.00 0.00 0.00 26 1009.3
20260503150200 80 0 0.0 2.0 0.00 0.00 0.00 26 1009.5
20260503131000 84 0 0.0 4.0 0.00 0.00 0.00 22 1010.7
20260503130200 84 315 1.0 4.0 0.00 0.00 0.00 22 1010.8
20260503110200 81 22 4.0 6.0 0.00 0.00 0.00 26 1012.4
20260503090200 75 337 0.0 6.0 0.00 0.00 0.00 32 1014.1
20260503081401 73 0 3.0 3.0 0.00 0.00 0.00 35 1014.4
20260503080600 73 22 6.0 6.0 0.00 0.00 0.00 35 1014.4
20260503072603 70 22 0.0 5.0 0.00 0.00 0.00 39 1014.6
20260503071801 70 0 4.0 6.0 0.00 0.00 0.00 39 1014.7
20260503071001 69 337 4.0 4.0 0.00 0.00 0.00 40 1014.7
20260503070201 69 0 0.0 5.0 0.00 0.00 0.00 42 1014.7
20260503055001 61 337 0.0 0.0 0.00 0.00 0.00 56 1014.8
20260503054201 60 337 0.0 0.0 0.00 0.00 0.00 58 1015.0
20260503053401 59 337 0.0 0.0 0.00 0.00 0.00 59 1015.0
20260503052601 58 337 0.0 0.0 0.00 0.00 0.00 61 1014.9
20260503051801 57 337 0.0 0.0 0.00 0.00 0.00 63 1015.1
20260503051001 55 0 0.0 0.0 0.00 0.00 0.00 65 1014.9
20260503050201 54 337 0.0 0.0 0.00 0.00 0.00 66 1015.1
20260503045401 52 337 0.0 0.0 0.00 0.00 0.00 67 1015.0
20260503044601 51 337 0.0 0.0 0.00 0.00 0.00 69 1015.0
20260503043801 49 0 0.0 0.0 0.00 0.00 0.00 68 1015.1
20260503043001 48 0 0.0 0.0 0.00 0.00 0.00 68 1015.0
20260503042201 47 0 0.0 0.0 0.00 0.00 0.00 68 1014.9
20260503041401 46 0 0.0 0.0 0.00 0.00 0.00 67 1015.0
20260503035801 46 0 0.0 0.0 0.00 0.00 0.00 67 1014.8
20260503035001 45 0 0.0 0.0 0.00 0.00 0.00 66 1014.9
20260503034201 45 0 0.0 0.0 0.00 0.00 0.00 66 1015.0
20260503033401 44 0 0.0 0.0 0.00 0.00 0.00 66 1014.7
20260503032601 44 0 0.0 0.0 0.00 0.00 0.00 65 1014.8
20260503031801 44 0 0.0 0.0 0.00 0.00 0.00 65 1014.7
20260503031001 44 0 0.0 0.0 0.00 0.00 0.00 65 1014.7
20260503030201 44 0 0.0 0.0 0.00 0.00 0.00 65 1014.6
20260503025401 44 0 0.0 0.0 0.00 0.00 0.00 64 1014.7
20260503023801 45 0 0.0 0.0 0.00 0.00 0.00 64 1014.8
20260503022201 45 0 0.0 0.0 0.00 0.00 0.00 63 1014.6
20260503021401 45 0 0.0 0.0 0.00 0.00 0.00 63 1014.7
20260503020601 45 0 0.0 0.0 0.00 0.00 0.00 63 1014.7
20260503015001 45 0 0.0 0.0 0.00 0.00 0.00 62 1014.7
20260503014201 46 0 0.0 0.0 0.00 0.00 0.00 61 1014.9
20260503013401 46 0 0.0 0.0 0.00 0.00 0.00 61 1014.8
20260503011801 46 0 0.0 0.0 0.00 0.00 0.00 60 1014.7
20260503011001 46 0 0.0 0.0 0.00 0.00 0.00 60 1014.7
20260503010201 47 0 0.0 0.0 0.00 0.00 0.00 59 1014.7
20260503005402 47 0 0.0 0.0 0.00 0.00 0.00 59 1014.8
20260503004602 47 0 0.0 0.0 0.00 0.00 0.00 59 1014.7
20260503003802 48 0 0.0 0.0 0.00 0.00 0.00 59 1014.8
20260503003001 48 0 0.0 0.0 0.00 0.00 0.00 59 1014.7
20260503002201 48 0 0.0 0.0 0.00 0.00 0.00 58 1014.6
20260503001401 48 0 0.0 0.0 0.00 0.00 0.00 59 1014.8
20260503000601 48 0 0.0 0.0 0.00 0.00 0.00 59 1014.6
20260502235801 48 0 0.0 0.0 0.00 0.00 0.00 59 1014.6
20260502235001 48 0 0.0 0.0 0.00 0.00 0.00 58 1014.7
20260502234201 48 0 0.0 0.0 0.00 0.00 0.00 58 1014.7
20260502233401 48 0 0.0 0.0 0.00 0.00 0.00 58 1014.7
20260502232601 48 0 0.0 0.0 0.00 0.00 0.00 57 1014.7
20260502231801 48 0 0.0 0.0 0.00 0.00 0.00 57 1014.7
20260502231001 49 0 0.0 0.0 0.00 0.00 0.00 57 1014.8
20260502230201 49 0 0.0 0.0 0.00 0.00 0.00 56 1014.8
20260502225401 49 0 0.0 0.0 0.00 0.00 0.00 56 1014.9
20260502223801 49 337 0.0 0.0 0.00 0.00 0.00 54 1014.6
20260502223001 50 337 0.0 0.0 0.00 0.00 0.00 54 1014.7
20260502222201 50 337 0.0 0.0 0.00 0.00 0.00 53 1014.9
20260502221401 50 337 0.0 0.0 0.00 0.00 0.00 54 1014.8
20260502220601 50 337 0.0 0.0 0.00 0.00 0.00 53 1014.9
20260502215801 51 337 0.0 0.0 0.00 0.00 0.00 52 1014.9
20260502215002 51 337 0.0 0.0 0.00 0.00 0.00 51 1014.9
20260502214201 51 337 0.0 0.0 0.00 0.00 0.00 51 1014.8
20260502213401 52 337 0.0 0.0 0.00 0.00 0.00 50 1014.9
20260502212601 52 337 0.0 0.0 0.00 0.00 0.00 50 1015.0
20260502211801 52 337 0.0 0.0 0.00 0.00 0.00 50 1014.9
20260502211001 53 337 0.0 0.0 0.00 0.00 0.00 49 1015.0
20260502210201 53 337 0.0 0.0 0.00 0.00 0.00 48 1015.1
20260502205401 54 337 0.0 0.0 0.00 0.00 0.00 47 1015.0
20260502204601 54 337 0.0 0.0 0.00 0.00 0.00 47 1015.0
20260502203801 55 337 0.0 0.0 0.00 0.00 0.00 46 1015.0
20260502203001 55 337 0.0 0.0 0.00 0.00 0.00 46 1015.0
20260502202201 56 337 0.0 0.0 0.00 0.00 0.00 45 1014.8
20260502201401 56 337 0.0 0.0 0.00 0.00 0.00 44 1014.9